Погода в Бресте

Погода в Бресте : погода сейчас, прогноз погоды и архив. Всё, что Вы хотите узнать о погоде в Бресте!

Поиск расширенной информации на нашем сайте:

Другие новости

Новости СМИ2

Главная страница сайта

Новости сайта

03.07.2017

Напоминаем, что на нашем специализированном сайте Метеоцентр.Азия вы можете получить высокодетализированные автоматические прогнозы погоды по пунктам России, СНГ и мира в авиационном формате (включающие направление и скорость ветра, видимость, явления погоды, количество и форму облачности, нижнюю и верхнюю границу облачности).

Рекомендуем: Колодец унифицированный ВГ 12 купить заказать Колодец унифицированный 12.

Погода в Бресте - сегодня

Время (UTC), дата Ветер
(°,м/с) 
Видим.   Явления Облачность Т
(°С)
Тd
(°С)
f(%) Тe
(°С)
Pmin
(гПа)
dP
(гПа)
Po
(мм)
O2
(г/м3)
Тmin Tmax R s Состояние
почвы
03 19.09.17 220 (ЮЗ) 10 км    ясно 
+7.2 +6.3 94 +7  1017.8  0.9  750  293           
06 19.09.17 220 (ЮЗ) 10 км    1/0 верхняя 
[Ci fib]
+8.5 +7.3 92 +10  1018.1  0.4  750  292  +6.3         
09 19.09.17 150 (ЮВ) 20000 м    3/0 верхняя 
[Cs]
+15.6 +9.9 69 +18  1018.7  1.1  751  284           
12 19.09.17 200 (Ю) 30000 м    8/4 1300 м верхняя 
[Cu hum|Cs]
+17.1 +6.6 50 +19  1017.9  -0.7  751  284           
15 19.09.17 тихо ()   30000 м    9/0 средняя 
[Ac As]
+16.8 +7.7 55 +17  1017.3  -0.6  750  283           
18 19.09.17 070 (В) 20000 м    10/0 средняя 
[Ac As]
+14.1 +10.1 77 +16  1017.9  0.4  750  286    +18.2       
21 19.09.17 тихо ()   20000 м  слаб. дождь  10/0 средняя 
[As op]
+12.9 +10.1 83 +14  1018  750  287      0.0     
00 20.09.17 060 (СВ) 20000 м  в посл. час дождь  10/10 1140 м 
[Sc]
+11.8 +10.5 92 +15  1017.4  -0.6  750  288      0.4     
03 20.09.17 050 (СВ) 15000 м  слаб. ливневой дождь  10/10 800 м 
[Sc]
+10.5 +9.4 93 +10  1016.7  -0.8  749  289         
06 20.09.17 060 (СВ) 15000 м  {ливн. осадки, дождь}  10/10 180 м 
[Sc]
+11 +10.1 94 +12  1016.2  -0.5  749  288  +10.4       
09 20.09.17 080 (В) 30000 м    10/10 270 м 
[Sc]
+12.4 +10.8 90 +14  1015.8  -0.3  749  287           
12 20.09.17 080 (В) 30000 м    10/10 420 м 
[Sc]
+14.2 +11.4 83 +18  1015.2  -0.4  748  284           
15 20.09.17 040 (СВ) 30000 м    10/10 840 м 
[Sc]
+14.2 +11.4 83 +17  1015.1  -0.1  748  284           
18 20.09.17 040 (СВ) 30000 м    5/5 1000 м 
[Sc]
+13 +11.2 89 +16  1015.4  0.2  749  286    +14.4       
21 20.09.17 360 (С) 30000 м    10/10 300 м 
[Sc]
+12.8 +11.4 91 +17  1015.3  -0.1  748  286           
00 21.09.17 010 (С) 30000 м    10/10 240 м 
[Sc]
+12.3 +11 92 +16  1014.3  -1.1  748  286           
03 21.09.17 010 (С) 8000 м  слаб. дождь  10/10 210 м 
[Frnb|Ns]
+11.6 +10.7 94 +14  1013.2  -1.1  747  287         
06 21.09.17 040 (СВ) 10 км  слаб. дождь{ливн. осадки}  10/10 150 м 
[Frnb|Ns]
+11.7 +10.9 95 +14  1011.9  -1.3  746  286  +11.3       
09 21.09.17 040 (СВ) 20000 м  {дождь}  10/10 150 м 
[Sc]
+12.4 +11.3 93 +15  1011.2  -0.6  745  285      0.2     
12 21.09.17 040 (СВ) 8000 м  слаб. морось{дождь}  10/10 120 м 
[St]
+12.5 +11.6 94 +16  1011.4  0.2  746  285      0.0     
15 21.09.17 350 (С) 3200 м  слаб. морось  10/10 150 м 
[St]
+12.8 +11.9 94 +18  1011.7  0.3  746  285      0.4     
18 21.09.17 340 (С) 2500 м  слаб. морось  10/10 150 м 
[St]
+12.8 +12.2 96 +18  1012.5  0.8  746  285    +13  0.5     
21 21.09.17 340 (С) 4200 м  дымка{морось}  10/10 100 м 
[St]
+12.7 +12.2 97 +18  1012.6  0.1  746  285      0.0     
00 22.09.17 тихо ()   6000 м  дымка{морось}  10/10 100 м 
[St]
+12.8 +12.3 97 +17  1012.8  0.2  747  285           
03 22.09.17 310 (СЗ) 0800 м  туман  ?/?  
+12.8 +12.8 100 +19  1014.1  1.3  748  285      0.0     
Время (UTC), дата Ветер
(°,м/с) 
Видим.   Явления Облачность Т
(°С)
Тd
(°С)
f(%) Тe
(°С)
Pmin
(гПа)
dP
(гПа)
Po
(мм)
O2
(г/м3)
Тmin Tmax R s Состояние
почвы

Для получения пояснительной информации подведите курсор к названию столбца.

ПОГОДА в Бресте - архив

Всё, что Вы хотите узнать о погоде в Бресте - удобно и подробно!

Выберите нужную дату (начиная с 1 января 2015* года) и нажмите кнопку "Найти".
Будут отображены архивные сводки погоды по пункту Брест, начиная с указанной даты.


Отображать данные в формате CSV (для использования в таблицах Excel)


Внимание! Наш архив погоды предназначен исключительно для личного некоммерческого использования в познавательных целях. Если Вам необходимы официальные справки о состоянии погоды (для производственных, юридических, коммерческих и т.п. целей), обращайтесь в органы Росгидромета.

*Примечание: данная дата относится к архиву по метеостанциям СССР (Россия, СНГ, Балтия).
Архив по метеостанциям Зарубежной Европы и Азии (кроме Китая) хранится 10 дней, по другим регионам земного шара (Китай, Африка, Америка, Австралия, Океания) - 1 день.

Брест - район местоположения метеостанции


Название, широта, долгота, высота метеостанции:
Брест 52.1°ш. 23.7°д. 146 м над ур. моря [Беларусь]

Дополнительная информация

В oтличие oт бoльшинства пoгoдных сайтoв мы публикуем пoдрoбную метеoинфoрмацию в детальнoм прoфессиoнальнoм фoрмате.

Характеристики температуры и влажнoсти вoздуха измеряются на высoте 2 м в тени вдали oт зданий и деревьев.
Скoрoсть ветра измеряется на высoте 10 м (на урoвне рoста челoвека скoрoсть ветра ниже в 1.5-2 раза). Если метеoстанция нахoдится в гoрoде или в лесу, тo скoрoсть ветра занижена на 2-4 м/с пo сравнению с oткрытым местoм. Скoрoсть ветра над акватoриями крупных рек и oзёр, а также на вершинах хoлмoв на 2-5 м/с выше, чем в oбычных услoвиях.
Атмoсфернoе давление в разных тoчках местнoсти мoжет значительнo oтличаться oт давления на метеoстанции, в зависимoсти oт услoвий рельефа (при пoдъёме на 10 м давление пoнижается примернo на 1 мм рт.ст.).